SCP
0 0 0 0 0 0 0 0 0 0 0 0 0 0 0 0 0 0 0 0 0 0 0 0 0 0 0 0 0 0 0 0 0 0 0 0 0 0 0 0 0 0 0 0 0
0 0 0 0 0 0 0 0 0 0 0 0 0 0 0 0 0 0 0 0 0 0 0 0 0 0 0 0 0 0 0 0 0 0 0 0 0 0 0 0 0 0 0 0 0
0 0 0 0 0 0 0 0 0 0 0 0 0 0 0 0 0 0 0 0 0 0 0 0 0 0 0 0 0 0 0 0 0 0 0 0 0 0 0 0 0 0 0 0 0
0 0 0 0 0 0 0 0 0 0 0 0 0 0 0 0 0 0 0 0 0 0 0 0 0 0 0 0 0 0 0 0 0 0 0 0 0 0 0 0 0 0 0 0 0
0 0 0 0 0 0 0 0 0 0 0 0 0 0 0 0 0 0 0 0 0 0 0 0 0 0 0 0 0 0 0 0 0 0 0 0 0 0 0 0 0 0 0 0 0
0 0 0 0 0 0 0 0 0 0 0 0 0 0 0 0 0 0 0 0 0 0 0 0 0 0 0 0 0 0 0 0 0 0 0 0 0 0 0 0 0 0 0 0 0
0 0 0 0 0 0 0 0 0 0 0 0 0 0 0 0 0 0 0 0 0 0 0 0 0 0 0 0 0 0 0 0 0 0 0 0 0 0 0 0 0 0 0 0 0
0 0 0 0 0 0 0 0 0 0 0 0 0 0 0 0 0 0 0 0 0 0 0 0 0 0 0 0 0 0 0 0 0 0 0 0 0 0 0 0 0 0 0 0 0
0 0 0 0 0 0 0 0 0 0 0 0 0 0 0 0 0 0 0 0 0 0 0 0 0 0 0 0 0 0 0 0 0 0 0 0 0 0 0 0 0 0 0 0 0
0 0 0 0 -0 -0 0 0 0 0 0 0 0 0 0 0 0 0 0 0 0 0 0 0 0 0 0 0 0 0 0 0 0 0 0 0 0 0 0 0 0 0 0 0 0
0 0 0 -0 -0 0 0 0 0 0 -0 0 0 0 0 0 0 0 0 0 0 0 0 0 0 0 0 0 0 0 0 0 0 0 0 0 0 0 0 0 0 0 0 0 0
0 0 0 -0 -0 0 0 0 0 0 0 0 0 0 0 0 0 0 0 0 0 0 0 0 0 0 0 0 0 0 0 0 0 0 0 0 0 0 0 0 0 0 0 0 0
0 0 0 -0 0 0 0 0 0 0 0 0 0 0 0 0 0 0 0 0 0 0 0 0 0 0 0 0 0 0 0 0 0 0 0 0 0 0 0 0 0 0 0 0 0
0 0 0 -0 0 0 0 0 0 0 0 0 0 0 0 0 0 0 0 0 0 0 0 0 0 0 0 0 0 0 0 0 0 0 0 0 0 0 0 0 0 0 0 0 0
0 0 0 0 0 0 0 0 0 0 0 0 0 0 0 0 0 0 0 0 0 0 0 0 0 0 0 0 0 0 0 0 0 0 0 0 0 0 0 0 0 0 0 0 0
0 0 0 0 0 0 0 0 0 0 0 0 0 0 0 0 0 0 0 0 0 0 -0 0 0 0 0 0 0 0 0 0 0 0 0 0 0 0 0 0 0 0 0 0 0
-0 -0 0 0 0 0 0 0 0 0 0 0 0 0 0 0 0 0 0 0 0 0 0 0 0 0 0 0 0 0 0 0 0 0 0 0 0 0 0 0 0 0 0 0 0
0 0 0 0 0 0 0 0 0 0 0 0 0 0 0 0 0 0 0 0 0 0 0 0 0 0 0 0 0 0 0 0 0 0 0 0 0 0 0 0 0 0 0 0 0
0 0 0 -0 0 0 0 0 0 0 0 0 0 0 0 0 0 0 0 0 0 0 0 0 0 0 0 0 0 0 0 0 0 0 0 0 0 0 0 0 0 0 0 0 0
0 0 0 0 0 0 0 0 0 0 0 0 0 0 0 0 0 0 0 0 0 0 0 0 0 0 0 0 0 0 0 0 0 0 0 0 0 0 0 0 0 0 0 0 0
0 0 0 0 0 0 0 0 0 0 0 0 0 0 0 0 0 0 0 0 0 0 0 0 0 0 0 0 0 0 0 0 0 0 0 0 0 0 0 0 0 0 0 0 0
0 0 0 0 0 0 0 0 0 0 0 0 0 0 0 0 0 0 0 0 0 0 0 0 0 0 0 0 0 0 0 0 0 0 0 0 0 0 0 0 0 0 0 0 0
0 0 0 0 0 0 0 0 0 0 0 0 0 0 0 0 0 0 0 0 0 0 0 0 0 0 0 0 0 0 0 0 0 0 0 0 0 0 0 0 0 0 0 -0 -0
-0 -0 0 0 0 0 0 0 0 0 0 0 0 0 0 0 0 0 0 0 0 0 0 0 0 0 0 0 0 0 0 0 0 0 0 0 0 0 0 0 0 -0 -0 -0 0
0 0 0 0 0 0 0 0 0 0 0 0 0 0 0 0 0 0 0 0 0 0 0 0 0 0 0 0 0 0 0 0 0 0 0 0 0 0 0 0 0 -0 0 0 0
0 0 0 0 0 0 0 0 0 0 0 0 0 0 0 0 0 0 0 0 0 0 0 0 0 0 0 0 0 0 0 0 0 0 0 0 0 0 0 0 0 0 0 0 0
0 0 0 0 0 0 0 0 0 0 0 0 0 0 0 0 0 0 0 0 0 0 0 0 0 0 0 0 0 0 0 0 0 0 0 0 0 0 0 0 0 0 0 0 0
Wind_Speed_500mb
26 27 28 28 26 25 24 21 20 21 20 17 12 8 1 3 6 4 3 5 3 2 5 11 16 19 16 12 9 6 7 8 6 9 3 3 9 3 5 4 8 9 3 7 21
24 25 28 31 30 26 23 23 21 20 18 16 10 8 2 7 3 6 8 6 3 2 7 15 19 22 8 8 3 5 6 7 5 3 1 1 4 3 6 11 11 9 14 12 25
24 26 29 31 32 28 27 22 21 21 17 11 7 5 2 4 3 7 9 7 1 5 9 15 20 16 5 7 2 3 3 4 4 3 4 4 4 4 7 12 12 11 17 20 30
23 26 29 30 29 31 31 24 20 19 15 8 4 1 2 4 3 7 7 5 2 7 13 16 17 8 6 9 3 4 4 1 3 1 3 4 10 8 13 3 4 8 12 20 30
23 27 29 30 30 32 32 26 17 17 9 5 3 3 5 6 5 6 5 5 4 9 13 15 16 9 8 8 7 4 7 5 2 2 1 8 12 12 21 17 22 20 16 17 26
22 27 30 29 30 32 27 24 14 12 6 3 2 5 7 5 3 7 4 5 5 10 13 16 12 12 15 7 0 5 6 6 4 4 3 7 5 6 3 3 8 24 27 22 28
23 26 30 31 30 31 29 23 12 7 3 1 5 8 9 7 6 7 5 7 10 12 13 14 18 5 11 11 8 10 5 5 11 11 4 10 10 13 9 14 13 9 16 23 23
26 28 29 29 29 30 27 15 10 5 3 5 6 7 9 9 8 7 7 9 14 15 16 16 16 16 8 17 6 3 2 6 6 20 4 10 3 2 1 3 6 6 6 12 20
29 30 30 27 27 25 25 11 4 5 3 3 3 8 9 7 4 6 7 10 14 15 17 14 7 11 8 5 5 6 4 2 5 11 10 5 10 4 1 12 23 21 23 25 28
29 27 27 23 25 23 21 7 5 8 4 2 6 7 6 2 5 6 7 11 9 16 10 4 7 5 5 2 3 3 3 1 3 11 11 15 28 26 22 26 33 33 29 26 30
29 27 27 22 24 20 16 7 5 2 10 11 6 11 8 13 17 9 8 11 11 7 5 9 8 10 8 7 6 6 3 3 4 9 14 8 30 35 32 19 15 14 14 16 20
25 32 20 22 21 17 11 5 7 15 17 16 15 17 14 6 6 15 7 4 6 7 3 7 10 3 3 7 8 8 3 5 5 7 10 15 37 16 12 11 14 16 20 24 26
23 30 21 15 15 12 4 3 13 13 7 8 10 9 7 10 12 19 9 9 12 10 8 9 6 4 4 12 5 9 5 4 5 17 2 27 10 9 9 14 16 15 16 24 30
11 26 17 11 9 5 3 1 9 7 7 8 5 7 7 6 9 20 11 5 9 8 9 12 6 3 9 7 6 5 2 2 5 10 5 15 5 9 9 17 30 34 32 29 31
24 22 12 6 6 6 4 2 10 6 1 5 5 4 11 8 4 13 19 12 10 7 2 4 6 8 8 5 5 7 4 6 5 4 3 10 3 6 3 15 22 37 39 35 28
15 18 11 4 4 3 1 8 11 7 5 1 5 7 5 12 7 5 6 15 11 9 25 9 5 7 6 4 6 12 4 5 3 2 3 5 8 8 9 11 16 26 35 34 33
1 21 6 3 1 1 7 8 7 3 4 2 4 5 6 8 5 12 7 8 3 7 3 2 5 4 6 4 4 3 3 2 1 1 2 2 7 6 15 18 10 25 39 43 46
20 20 7 6 5 8 10 7 3 2 6 1 2 5 4 7 5 8 6 6 8 2 6 6 5 5 11 6 2 4 2 2 5 3 4 1 9 12 8 16 26 30 33 39 43
22 11 6 4 5 9 5 4 4 5 4 10 5 4 2 1 2 1 4 5 3 1 2 7 4 2 9 6 6 5 2 4 12 2 4 2 8 6 18 4 20 29 40 43 40
15 11 5 5 6 9 7 3 3 1 1 3 7 2 7 4 4 2 4 4 8 2 1 6 4 1 2 3 11 4 9 5 1 5 8 5 11 10 22 15 9 30 36 42 40
7 7 5 6 9 5 4 4 3 3 1 1 7 6 2 4 0 2 4 1 4 7 7 9 2 5 3 10 7 7 4 5 2 4 6 5 8 8 17 19 12 18 24 36 38
5 4 5 8 5 6 4 7 3 1 2 1 5 5 7 9 6 4 6 3 4 10 8 4 3 6 4 3 4 5 4 10 7 10 2 5 13 3 12 22 15 18 29 35 37
3 6 4 5 5 3 3 3 3 4 4 5 4 1 3 7 3 4 5 2 9 6 7 11 1 2 4 3 4 9 9 5 5 2 14 8 7 7 14 9 4 15 31 38 33
3 4 6 6 9 9 9 5 3 5 4 1 4 6 7 3 2 8 10 6 9 5 7 9 6 8 8 4 6 8 11 16 9 9 11 30 12 10 14 4 4 20 38 42 41
6 5 4 4 6 5 3 8 8 9 6 5 2 8 8 7 4 7 6 6 3 6 5 4 9 6 13 10 8 14 12 19 25 25 21 31 21 12 9 12 27 39 45 46 44
7 9 8 7 5 5 1 9 11 3 9 7 7 13 13 9 7 13 15 9 8 6 11 2 3 2 8 12 13 26 27 33 36 34 28 42 59 13 6 15 25 37 42 38 44
7 7 3 2 5 6 6 7 9 11 9 2 7 7 8 7 4 3 6 5 3 10 14 9 10 3 8 7 15 21 32 37 21 16 27 31 18 6 5 17 26 40 33 40 49
Wind_Direction_500mb
8 8 5 1 357 351 348 348 353 348 349 345 355 7 65 143 72 83 9 348 305 261 183 173 162 159 154 157 153 152 215 210 206 190 112 151 206 171 218 173 191 208 186 196 188
358 358 358 355 350 345 340 339 338 340 337 334 338 355 54 176 178 51 6 341 317 177 155 161 161 158 145 145 143 209 230 207 30 31 48 210 240 186 236 199 214 221 222 217 191
349 349 351 350 352 348 337 331 329 332 329 319 313 347 64 146 138 354 3 355 8 163 164 169 162 161 122 142 110 162 254 124 113 46 330 300 248 276 239 227 229 230 212 217 198
340 342 344 347 351 348 342 330 328 327 325 303 283 271 102 137 243 341 8 1 124 157 162 161 165 146 144 163 127 173 83 65 128 23 348 316 307 262 236 243 195 223 232 223 213
332 339 340 341 342 343 341 334 329 327 324 288 256 201 169 116 56 8 24 28 149 154 164 172 167 156 156 134 132 172 148 116 119 58 320 291 270 286 270 256 255 252 251 241 229
324 331 337 340 339 339 340 336 337 330 329 279 230 165 162 146 16 21 50 46 137 152 159 168 179 155 109 90 163 98 126 110 42 8 354 311 261 327 249 218 247 252 246 242 236
315 324 330 335 335 339 344 342 349 340 326 221 144 117 124 130 65 41 99 83 114 133 141 139 137 131 117 118 115 126 146 134 36 350 350 326 237 229 258 265 272 265 239 237 240
309 320 321 324 336 341 341 341 354 30 90 131 151 150 103 117 67 43 129 108 102 114 125 127 121 106 69 119 75 107 209 204 51 5 355 326 240 140 106 287 274 258 262 255 250
295 308 314 328 327 338 339 334 20 59 80 143 155 148 116 113 84 72 119 126 116 117 119 121 112 88 84 165 134 40 172 190 152 36 320 337 292 126 272 306 288 275 279 279 268
300 307 306 315 322 337 329 288 64 16 224 133 98 127 114 76 68 62 112 139 131 127 110 110 67 94 56 271 199 143 138 147 326 11 331 292 273 285 297 294 293 292 292 288 276
297 299 301 294 321 321 299 273 270 223 78 82 82 94 93 95 61 54 130 123 122 104 70 27 76 78 56 30 54 90 90 332 64 21 322 318 296 293 320 308 328 7 20 355 331
293 301 290 292 316 313 305 253 236 147 91 73 81 79 72 97 78 49 103 129 74 77 2 65 81 41 64 53 78 53 72 12 293 17 320 331 296 338 24 14 357 356 4 358 353
300 286 285 300 312 303 320 205 149 144 93 54 63 57 48 69 52 17 49 87 79 54 36 90 82 325 154 53 105 52 56 28 313 324 76 325 268 40 42 37 36 29 13 11 8
294 259 265 309 305 295 287 194 177 170 83 355 1 20 4 118 61 34 44 77 58 136 72 70 9 112 103 80 340 141 47 18 353 349 325 0 297 59 19 69 49 29 24 12 13
347 268 239 310 285 297 289 209 165 144 221 14 6 23 41 81 110 25 38 61 81 86 230 66 27 43 62 36 341 96 66 65 64 84 279 21 243 82 18 19 23 25 19 14 16
279 242 124 295 287 292 221 145 133 45 249 65 320 347 53 29 38 24 72 74 109 80 55 82 56 33 34 61 40 129 108 77 103 132 155 17 346 66 27 340 337 5 13 19 25
341 112 114 305 175 251 145 140 48 170 25 271 33 26 79 17 49 18 39 48 57 117 80 29 32 14 9 185 145 155 208 311 210 50 37 18 270 5 353 6 23 48 50 49 42
154 115 155 219 159 149 150 55 159 54 217 8 60 70 73 355 36 16 107 114 65 54 124 171 208 14 1 353 353 54 283 155 270 256 335 156 226 150 81 83 73 69 51 35 35
121 133 134 118 143 148 137 84 228 183 115 159 100 110 326 251 248 89 42 124 112 341 133 144 191 24 20 338 333 154 165 70 101 60 257 283 259 324 154 123 68 51 40 30 24
128 136 114 131 134 136 83 199 138 320 291 194 196 238 195 213 213 188 211 178 134 133 234 147 129 147 283 294 45 305 129 131 72 206 246 215 283 209 197 170 47 36 26 24 20
139 117 58 128 127 122 137 146 235 205 251 194 168 145 230 184 217 196 149 147 178 130 122 138 242 140 229 202 182 154 191 56 350 283 247 261 235 208 171 128 90 45 26 19 18
137 90 49 141 59 46 118 164 155 147 209 194 105 114 182 166 154 205 222 298 184 161 146 149 133 209 208 89 298 291 260 204 216 196 223 323 261 67 122 127 69 43 34 23 18
90 90 42 146 131 103 97 97 178 205 219 194 145 87 133 167 224 205 183 102 164 183 167 173 221 251 208 171 211 237 197 183 76 33 208 227 229 120 116 109 50 19 17 11 4
41 38 46 62 87 127 152 183 192 221 264 194 142 126 146 122 4 191 189 172 190 169 153 162 172 223 252 70 98 206 207 206 199 207 214 231 223 196 181 83 356 1 0 355 347
57 95 106 2 34 85 97 141 147 197 222 193 318 225 173 148 179 220 190 164 186 179 127 189 226 236 268 238 229 243 215 198 207 218 224 270 227 239 321 345 350 345 343 337 338
142 161 119 97 105 131 320 215 188 208 177 216 209 192 181 177 213 194 176 195 191 156 169 150 235 47 273 315 288 270 250 234 229 235 254 265 274 332 13 329 328 334 330 328 330
90 103 89 89 140 171 199 185 213 165 207 318 220 151 227 257 195 72 163 70 158 170 174 167 157 164 262 348 313 273 237 220 220 213 233 246 274 116 284 318 320 318 315 318 320
Wind_Speed_850mb
26 27 28 28 26 25 24 21 20 21 20 17 12 8 1 3 6 4 3 5 3 2 5 11 16 19 16 12 9 6 7 8 6 9 3 3 9 3 5 4 8 9 3 7 21
24 25 28 31 30 26 23 23 21 20 18 16 10 8 2 7 3 6 8 6 3 2 7 15 19 22 8 8 3 5 6 7 5 3 1 1 4 3 6 11 11 9 14 12 25
24 26 29 31 32 28 27 22 21 21 17 11 7 5 2 4 3 7 9 7 1 5 9 15 20 16 5 7 2 3 3 4 4 3 4 4 4 4 7 12 12 11 17 20 30
23 26 29 30 29 31 31 24 20 19 15 8 4 1 2 4 3 7 7 5 2 7 13 16 17 8 6 9 3 4 4 1 3 1 3 4 10 8 13 3 4 8 12 20 30
23 27 29 30 30 32 32 26 17 17 9 5 3 3 5 6 5 6 5 5 4 9 13 15 16 9 8 8 7 4 7 5 2 2 1 8 12 12 21 17 22 20 16 17 26
22 27 30 29 30 32 27 24 14 12 6 3 2 5 7 5 3 7 4 5 5 10 13 16 12 12 15 7 0 5 6 6 4 4 3 7 5 6 3 3 8 24 27 22 28
23 26 30 31 30 31 29 23 12 7 3 1 5 8 9 7 6 7 5 7 10 12 13 14 18 5 11 11 8 10 5 5 11 11 4 10 10 13 9 14 13 9 16 23 23
26 28 29 29 29 30 27 15 10 5 3 5 6 7 9 9 8 7 7 9 14 15 16 16 16 16 8 17 6 3 2 6 6 20 4 10 3 2 1 3 6 6 6 12 20
29 30 30 27 27 25 25 11 4 5 3 3 3 8 9 7 4 6 7 10 14 15 17 14 7 11 8 5 5 6 4 2 5 11 10 5 10 4 1 12 23 21 23 25 28
29 27 27 23 25 23 21 7 5 8 4 2 6 7 6 2 5 6 7 11 9 16 10 4 7 5 5 2 3 3 3 1 3 11 11 15 28 26 22 26 33 33 29 26 30
29 27 27 22 24 20 16 7 5 2 10 11 6 11 8 13 17 9 8 11 11 7 5 9 8 10 8 7 6 6 3 3 4 9 14 8 30 35 32 19 15 14 14 16 20
25 32 20 22 21 17 11 5 7 15 17 16 15 17 14 6 6 15 7 4 6 7 3 7 10 3 3 7 8 8 3 5 5 7 10 15 37 16 12 11 14 16 20 24 26
23 30 21 15 15 12 4 3 13 13 7 8 10 9 7 10 12 19 9 9 12 10 8 9 6 4 4 12 5 9 5 4 5 17 2 27 10 9 9 14 16 15 16 24 30
11 26 17 11 9 5 3 1 9 7 7 8 5 7 7 6 9 20 11 5 9 8 9 12 6 3 9 7 6 5 2 2 5 10 5 15 5 9 9 17 30 34 32 29 31
24 22 12 6 6 6 4 2 10 6 1 5 5 4 11 8 4 13 19 12 10 7 2 4 6 8 8 5 5 7 4 6 5 4 3 10 3 6 3 15 22 37 39 35 28
15 18 11 4 4 3 1 8 11 7 5 1 5 7 5 12 7 5 6 15 11 9 25 9 5 7 6 4 6 12 4 5 3 2 3 5 8 8 9 11 16 26 35 34 33
1 21 6 3 1 1 7 8 7 3 4 2 4 5 6 8 5 12 7 8 3 7 3 2 5 4 6 4 4 3 3 2 1 1 2 2 7 6 15 18 10 25 39 43 46
20 20 7 6 5 8 10 7 3 2 6 1 2 5 4 7 5 8 6 6 8 2 6 6 5 5 11 6 2 4 2 2 5 3 4 1 9 12 8 16 26 30 33 39 43
22 11 6 4 5 9 5 4 4 5 4 10 5 4 2 1 2 1 4 5 3 1 2 7 4 2 9 6 6 5 2 4 12 2 4 2 8 6 18 4 20 29 40 43 40
15 11 5 5 6 9 7 3 3 1 1 3 7 2 7 4 4 2 4 4 8 2 1 6 4 1 2 3 11 4 9 5 1 5 8 5 11 10 22 15 9 30 36 42 40
7 7 5 6 9 5 4 4 3 3 1 1 7 6 2 4 0 2 4 1 4 7 7 9 2 5 3 10 7 7 4 5 2 4 6 5 8 8 17 19 12 18 24 36 38
5 4 5 8 5 6 4 7 3 1 2 1 5 5 7 9 6 4 6 3 4 10 8 4 3 6 4 3 4 5 4 10 7 10 2 5 13 3 12 22 15 18 29 35 37
3 6 4 5 5 3 3 3 3 4 4 5 4 1 3 7 3 4 5 2 9 6 7 11 1 2 4 3 4 9 9 5 5 2 14 8 7 7 14 9 4 15 31 38 33
3 4 6 6 9 9 9 5 3 5 4 1 4 6 7 3 2 8 10 6 9 5 7 9 6 8 8 4 6 8 11 16 9 9 11 30 12 10 14 4 4 20 38 42 41
6 5 4 4 6 5 3 8 8 9 6 5 2 8 8 7 4 7 6 6 3 6 5 4 9 6 13 10 8 14 12 19 25 25 21 31 21 12 9 12 27 39 45 46 44
7 9 8 7 5 5 1 9 11 3 9 7 7 13 13 9 7 13 15 9 8 6 11 2 3 2 8 12 13 26 27 33 36 34 28 42 59 13 6 15 25 37 42 38 44
7 7 3 2 5 6 6 7 9 11 9 2 7 7 8 7 4 3 6 5 3 10 14 9 10 3 8 7 15 21 32 37 21 16 27 31 18 6 5 17 26 40 33 40 49
Wind_Direction_850mb
8 8 5 1 357 351 348 348 353 348 349 345 355 7 65 143 72 83 9 348 305 261 183 173 162 159 154 157 153 152 215 210 206 190 112 151 206 171 218 173 191 208 186 196 188
358 358 358 355 350 345 340 339 338 340 337 334 338 355 54 176 178 51 6 341 317 177 155 161 161 158 145 145 143 209 230 207 30 31 48 210 240 186 236 199 214 221 222 217 191
349 349 351 350 352 348 337 331 329 332 329 319 313 347 64 146 138 354 3 355 8 163 164 169 162 161 122 142 110 162 254 124 113 46 330 300 248 276 239 227 229 230 212 217 198
340 342 344 347 351 348 342 330 328 327 325 303 283 271 102 137 243 341 8 1 124 157 162 161 165 146 144 163 127 173 83 65 128 23 348 316 307 262 236 243 195 223 232 223 213
332 339 340 341 342 343 341 334 329 327 324 288 256 201 169 116 56 8 24 28 149 154 164 172 167 156 156 134 132 172 148 116 119 58 320 291 270 286 270 256 255 252 251 241 229
324 331 337 340 339 339 340 336 337 330 329 279 230 165 162 146 16 21 50 46 137 152 159 168 179 155 109 90 163 98 126 110 42 8 354 311 261 327 249 218 247 252 246 242 236
315 324 330 335 335 339 344 342 349 340 326 221 144 117 124 130 65 41 99 83 114 133 141 139 137 131 117 118 115 126 146 134 36 350 350 326 237 229 258 265 272 265 239 237 240
309 320 321 324 336 341 341 341 354 30 90 131 151 150 103 117 67 43 129 108 102 114 125 127 121 106 69 119 75 107 209 204 51 5 355 326 240 140 106 287 274 258 262 255 250
295 308 314 328 327 338 339 334 20 59 80 143 155 148 116 113 84 72 119 126 116 117 119 121 112 88 84 165 134 40 172 190 152 36 320 337 292 126 272 306 288 275 279 279 268
300 307 306 315 322 337 329 288 64 16 224 133 98 127 114 76 68 62 112 139 131 127 110 110 67 94 56 271 199 143 138 147 326 11 331 292 273 285 297 294 293 292 292 288 276
297 299 301 294 321 321 299 273 270 223 78 82 82 94 93 95 61 54 130 123 122 104 70 27 76 78 56 30 54 90 90 332 64 21 322 318 296 293 320 308 328 7 20 355 331
293 301 290 292 316 313 305 253 236 147 91 73 81 79 72 97 78 49 103 129 74 77 2 65 81 41 64 53 78 53 72 12 293 17 320 331 296 338 24 14 357 356 4 358 353
300 286 285 300 312 303 320 205 149 144 93 54 63 57 48 69 52 17 49 87 79 54 36 90 82 325 154 53 105 52 56 28 313 324 76 325 268 40 42 37 36 29 13 11 8
294 259 265 309 305 295 287 194 177 170 83 355 1 20 4 118 61 34 44 77 58 136 72 70 9 112 103 80 340 141 47 18 353 349 325 0 297 59 19 69 49 29 24 12 13
347 268 239 310 285 297 289 209 165 144 221 14 6 23 41 81 110 25 38 61 81 86 230 66 27 43 62 36 341 96 66 65 64 84 279 21 243 82 18 19 23 25 19 14 16
279 242 124 295 287 292 221 145 133 45 249 65 320 347 53 29 38 24 72 74 109 80 55 82 56 33 34 61 40 129 108 77 103 132 155 17 346 66 27 340 337 5 13 19 25
341 112 114 305 175 251 145 140 48 170 25 271 33 26 79 17 49 18 39 48 57 117 80 29 32 14 9 185 145 155 208 311 210 50 37 18 270 5 353 6 23 48 50 49 42
154 115 155 219 159 149 150 55 159 54 217 8 60 70 73 355 36 16 107 114 65 54 124 171 208 14 1 353 353 54 283 155 270 256 335 156 226 150 81 83 73 69 51 35 35
121 133 134 118 143 148 137 84 228 183 115 159 100 110 326 251 248 89 42 124 112 341 133 144 191 24 20 338 333 154 165 70 101 60 257 283 259 324 154 123 68 51 40 30 24
128 136 114 131 134 136 83 199 138 320 291 194 196 238 195 213 213 188 211 178 134 133 234 147 129 147 283 294 45 305 129 131 72 206 246 215 283 209 197 170 47 36 26 24 20
139 117 58 128 127 122 137 146 235 205 251 194 168 145 230 184 217 196 149 147 178 130 122 138 242 140 229 202 182 154 191 56 350 283 247 261 235 208 171 128 90 45 26 19 18
137 90 49 141 59 46 118 164 155 147 209 194 105 114 182 166 154 205 222 298 184 161 146 149 133 209 208 89 298 291 260 204 216 196 223 323 261 67 122 127 69 43 34 23 18
90 90 42 146 131 103 97 97 178 205 219 194 145 87 133 167 224 205 183 102 164 183 167 173 221 251 208 171 211 237 197 183 76 33 208 227 229 120 116 109 50 19 17 11 4
41 38 46 62 87 127 152 183 192 221 264 194 142 126 146 122 4 191 189 172 190 169 153 162 172 223 252 70 98 206 207 206 199 207 214 231 223 196 181 83 356 1 0 355 347
57 95 106 2 34 85 97 141 147 197 222 193 318 225 173 148 179 220 190 164 186 179 127 189 226 236 268 238 229 243 215 198 207 218 224 270 227 239 321 345 350 345 343 337 338
142 161 119 97 105 131 320 215 188 208 177 216 209 192 181 177 213 194 176 195 191 156 169 150 235 47 273 315 288 270 250 234 229 235 254 265 274 332 13 329 328 334 330 328 330
90 103 89 89 140 171 199 185 213 165 207 318 220 151 227 257 195 72 163 70 158 170 174 167 157 164 262 348 313 273 237 220 220 213 233 246 274 116 284 318 320 318 315 318 320